Volver al catálogo

STARLINK-3161

ActivoComunicacionesVLEO
NORAD 49422·PAYLOAD·🇺🇸 United States

Lanzado Nov 13, 2021 desde Cape Canaveral Space Force Station

Loading…

Próximos Pases (próximas 24 horas)

TLE

ActualizadoSource: CelesTrak SupGP

Época: Sep 14, 2026, 21:05 UTC

1 49422C 21104Q   26257.87895833 -.00006383  00000+0 -18263-3 0  2573
2 49422  53.1577  87.8726 0001257  83.3076 322.3592 15.35398629    19

Sigue STARLINK-3161 en tiempo real con AllMySat

Download on the App Store